Dewpoint
53 51 51 52 52 52 51 51 51 50 49 48 52 51 49 49 48 47 44 44 43 49 47 41 37 29 17 18 26 25 22 24 26 21 22 17 25 22 25 27 24 27 28 28 40
51 52 52 52 52 51 51 51 51 50 50 48 50 50 49 47 45 44 48 49 47 46 37 35 26 21 17 14 20 23 22 22 19 17 16 17 14 14 25 26 26 27 35 39 42
51 51 52 52 52 52 51 51 50 50 50 49 50 47 46 47 39 36 45 50 45 44 36 34 29 18 13 16 17 20 20 20 21 20 20 19 15 16 22 25 26 27 33 37 40
50 51 52 52 52 52 51 50 50 49 49 48 46 45 45 45 11 27 43 43 40 35 33 30 23 18 12 10 14 18 21 21 21 23 19 16 17 16 22 22 26 28 35 36 37
50 51 51 51 51 50 50 49 47 46 45 47 46 45 44 35 33 30 32 26 24 29 28 23 15 16 12 12 11 14 17 21 21 23 21 19 16 14 21 26 29 33 34 35 35
51 51 51 51 51 49 48 45 45 46 43 47 46 45 40 20 21 25 24 13 14 18 15 18 16 15 13 13 12 12 14 13 17 19 19 17 15 16 23 26 26 29 31 31 33
50 50 50 50 51 49 47 43 46 44 44 47 46 44 38 23 12 15 14 12 11 11 12 14 14 13 12 10 12 10 8 12 14 17 15 14 13 15 22 25 25 26 27 28 29
50 50 50 50 51 48 46 43 45 44 47 47 44 41 29 27 15 12 13 12 10 10 13 12 16 14 12 12 9 8 8 7 10 16 16 15 13 19 23 24 25 25 26 28 29
50 49 49 50 50 47 45 44 43 44 45 43 40 34 18 22 14 11 13 13 13 11 12 7 16 12 14 10 9 6 6 6 7 14 11 13 12 22 23 25 24 25 26 27 27
49 50 49 50 49 47 44 40 40 41 38 39 36 21 17 13 16 15 15 16 13 14 15 12 14 11 11 11 7 7 3 3 6 8 12 18 20 21 22 22 22 22 24 27 26
49 49 49 48 47 44 33 25 18 24 24 12 12 12 13 14 18 18 19 17 14 12 8 12 9 8 11 9 14 13 9 5 4 5 17 19 19 19 21 21 21 22 22 23 25
49 49 47 45 45 36 26 22 22 23 17 20 13 14 14 17 16 18 19 14 12 8 11 12 10 9 10 11 12 12 13 9 5 14 18 17 17 18 20 21 22 22 22 23 23
49 48 46 44 41 29 24 23 25 27 16 15 16 16 16 17 15 17 20 18 14 11 11 11 11 11 9 10 12 13 12 10 6 18 19 17 17 18 19 20 22 22 22 23 23
48 48 46 41 31 27 25 28 26 29 16 13 16 17 16 21 17 21 19 19 14 12 11 11 11 7 9 9 10 10 11 15 13 16 11 16 7 16 16 17 18 19 20 21 22
47 47 45 38 28 26 28 28 28 24 -4 17 17 21 20 17 18 19 19 19 17 16 11 10 11 13 11 10 11 13 14 16 19 20 19 16 11 13 16 13 17 17 21 22 22
46 47 43 31 29 29 29 31 31 19 1 15 18 16 16 16 18 19 15 15 16 16 12 12 14 16 15 11 13 13 18 19 20 20 16 17 15 9 13 8 16 16 20 21 21
45 45 39 29 22 30 31 31 18 8 15 15 12 17 17 9 14 18 14 10 9 6 13 16 17 17 18 13 13 18 18 12 10 10 7 8 17 7 9 15 18 15 18 20 23
44 43 35 26 29 30 27 10 1 14 14 17 16 17 8 4 10 12 13 7 9 9 8 9 6 10 17 16 16 17 14 12 2 -2 3 10 8 7 12 21 21 23 16 21 23
41 35 24 23 30 27 14 8 9 14 14 15 16 9 7 3 2 14 8 5 7 8 -1 3 11 22 20 21 20 17 15 18 13 8 7 7 1 14 19 18 19 20 19 19 23
35 30 22 25 29 23 18 16 14 12 8 16 10 6 4 -3 -3 8 6 7 5 9 10 3 -1 16 16 19 23 20 18 14 15 7 5 -2 -8 -3 8 13 17 17 17 19 22
29 24 23 24 21 18 13 14 11 6 10 6 6 1 2 -6 -5 6 1 6 5 9 14 7 -2 4 15 7 7 13 12 13 13 12 3 -12 -6 -4 3 13 14 17 19 18 17
27 17 27 20 11 15 11 15 12 5 7 2 -1 0 -1 1 -2 4 6 4 6 10 13 15 0 -2 1 8 9 5 7 7 7 2 5 -2 -7 8 11 14 16 16 20 18 19
23 23 26 16 2 12 15 12 11 4 4 3 1 2 1 -3 -3 2 6 7 7 7 12 16 4 -7 -5 1 8 -1 -4 -4 2 4 -6 -2 -8 9 15 14 14 12 12 13 18
22 17 22 20 14 10 8 8 11 9 5 5 3 2 -1 1 2 2 4 11 9 10 15 16 5 -0 -6 -7 1 -2 -1 -10 -4 -2 -8 -4 -3 4 11 14 14 14 14 10 15
25 21 22 17 19 18 7 5 7 7 5 8 5 6 3 -5 -3 5 8 8 9 12 7 10 -0 6 5 6 8 5 6 -5 -9 -14 -5 -7 -2 6 12 12 11 12 14 17 19
23 22 22 20 20 13 10 5 5 8 4 4 6 6 4 -1 -3 -10 4 7 8 8 5 7 1 6 4 5 5 5 5 6 2 -10 -12 -12 1 10 9 6 8 12 13 16 19
29 27 25 20 19 14 11 6 5 7 9 9 6 7 4 7 8 6 8 10 7 6 5 -2 -1 0 -1 0 0 -3 3 4 -1 -5 -1 -1 0 6 8 11 8 5 5 13 18
Lifted_Index
11 11 11 11 11 11 11 11 10 10 11 10 10 9 10 10 10 10 10 10 9 8 8 9 10 10 10 10 9 8 6 5 5 6 6 7 6 6 6 6 7 7 6 4 2
12 11 11 11 11 11 11 10 10 10 10 10 10 10 10 10 10 10 10 9 8 8 9 9 10 10 10 10 9 8 7 6 7 7 7 7 7 7 7 7 7 7 5 3 2
12 11 11 11 11 11 10 10 10 10 10 10 10 10 10 10 10 10 9 8 8 8 9 10 10 10 9 9 9 8 8 8 8 9 8 8 8 8 8 7 7 6 4 2 1
12 12 11 11 11 11 11 11 11 11 11 10 10 11 11 10 10 10 10 9 9 10 10 10 10 9 9 9 9 8 8 9 9 9 8 8 8 8 8 7 7 5 3 2 1
12 12 12 11 11 11 11 11 11 11 11 11 11 11 11 11 11 12 12 11 11 11 11 10 10 9 8 8 8 8 8 8 9 8 8 7 7 7 7 7 6 5 3 2 2
12 12 12 11 11 11 12 12 12 12 11 11 10 11 11 11 13 13 13 13 12 12 11 10 10 9 8 8 8 8 8 8 8 8 8 7 6 6 6 6 6 5 4 4 5
13 12 12 12 11 12 12 12 12 12 11 10 10 11 11 12 13 14 13 13 12 12 11 11 10 10 9 8 8 7 7 7 7 7 7 6 5 5 6 6 6 6 6 6 7
13 13 12 12 11 12 12 12 12 11 10 10 11 11 12 13 13 13 13 12 12 11 11 11 11 10 8 8 7 6 6 6 6 6 5 5 5 5 5 6 6 6 7 7 7
13 12 12 12 11 12 12 12 12 11 11 11 11 11 12 12 12 12 12 11 11 11 10 10 9 8 7 6 5 5 4 4 4 4 4 4 4 5 5 6 6 6 7 7 8
12 12 12 11 11 12 12 12 12 12 12 12 12 12 12 12 11 11 11 10 10 9 8 8 7 6 5 4 3 3 3 3 3 3 4 4 4 4 5 6 6 6 7 7 8
12 12 12 12 12 13 13 13 13 12 12 12 12 12 11 11 11 10 10 9 8 7 6 6 5 4 3 3 3 3 3 3 3 3 3 3 4 4 5 6 6 7 7 7 8
12 12 12 12 13 13 14 13 13 13 12 12 12 11 11 10 9 9 8 8 6 5 5 4 4 3 3 3 3 3 3 3 3 3 3 3 4 4 5 6 7 7 7 8 8
12 12 12 13 13 13 13 13 13 12 11 11 11 11 10 9 8 8 7 6 5 4 4 3 3 3 3 3 3 2 3 3 3 3 3 3 3 4 5 6 7 7 8 8 8
12 12 12 13 13 13 13 13 13 11 9 9 10 10 9 8 8 7 7 6 5 4 3 3 3 3 2 2 2 2 2 3 2 2 2 2 2 3 5 5 6 7 8 8 8
11 12 12 13 13 13 12 12 12 9 6 7 9 9 9 8 8 7 7 6 5 5 4 3 3 2 2 2 2 2 2 2 2 1 1 2 2 2 4 5 6 7 8 8 9
12 12 12 13 13 12 12 11 9 6 5 6 8 8 8 8 7 7 6 6 5 5 4 3 3 3 3 3 3 3 2 2 1 1 1 1 1 2 3 4 5 7 8 9 9
12 12 12 13 12 12 11 9 6 5 5 6 7 7 7 7 7 6 6 6 5 4 4 3 3 3 3 3 3 3 2 1 1 1 1 1 1 2 3 4 6 7 8 9 9
12 12 12 12 12 11 10 7 5 5 6 7 7 7 6 7 7 6 6 5 5 5 4 3 3 3 3 3 3 2 2 1 0 0 1 2 2 3 4 6 7 8 8 9 9
11 11 11 12 12 11 9 7 5 6 7 7 6 6 6 6 6 6 5 5 6 6 5 4 3 4 4 4 3 2 2 1 1 1 1 1 2 3 4 6 7 8 8 9 9
10 10 10 12 12 10 8 6 6 7 7 6 5 5 5 5 5 5 5 5 6 7 6 5 4 4 4 4 3 3 2 2 1 1 1 1 2 3 4 5 6 8 8 9 9
10 9 10 12 11 9 7 7 7 8 8 7 5 5 5 4 4 4 4 6 7 7 7 6 5 5 4 4 4 3 3 2 2 1 1 1 2 4 5 6 7 8 9 9 10
10 10 11 11 10 8 7 7 7 7 7 7 6 5 5 4 4 4 5 6 7 7 7 6 6 5 4 5 4 4 3 3 2 2 1 1 3 5 7 8 8 9 9 10 10
10 10 11 10 8 7 7 7 7 7 7 6 6 6 5 4 4 4 5 6 7 7 7 6 6 4 4 5 5 5 4 4 3 3 2 2 3 6 8 8 9 9 9 10 10
11 10 10 9 8 6 6 6 6 6 6 6 6 5 5 4 4 4 5 7 7 7 7 6 6 5 4 5 5 5 5 5 5 4 4 3 4 5 6 7 8 9 9 10 11
11 10 9 8 7 6 6 5 5 5 6 5 5 5 4 4 4 4 5 6 7 7 7 6 6 5 5 6 6 6 6 6 5 5 5 5 5 5 6 7 8 9 9 10 10
10 10 8 7 6 5 5 5 5 5 5 5 4 4 4 3 4 4 5 6 6 7 7 6 6 5 5 6 6 6 6 6 6 6 6 6 6 6 7 8 8 9 10 10 10
10 9 8 6 6 5 5 5 6 6 5 5 4 4 4 4 4 5 6 6 6 6 6 6 6 5 5 5 5 5 6 6 6 7 7 6 6 7 8 8 9 10 10 10 11